SCP
1 1 0 0 0 0 0 0 0 0 0 0 0 0 0 0 0 0 0 0 0 0 0 0 0 0 0 0 0 0 0 0 0 0 0 0 0 0
1 0 0 0 0 0 0 0 0 0 0 0 0 0 0 0 0 0 0 0 0 0 0 0 0 0 0 0 0 0 0 0 0 0 0 0 0 0
0 0 0 0 0 0 0 0 0 0 0 0 0 0 0 0 0 0 0 0 0 0 0 0 0 0 0 0 0 0 0 0 0 0 0 0 0 0
0 0 0 0 0 0 0 0 0 0 0 0 0 0 0 0 0 0 0 0 0 0 0 0 -0 0 0 0 0 0 0 0 0 0 0 0 0 0
0 0 0 0 0 0 0 0 0 0 0 0 0 0 0 0 0 0 0 0 0 0 0 0 0 0 0 0 0 0 0 0 0 0 0 0 0 0
0 0 0 0 0 0 0 0 0 0 0 0 0 0 0 0 0 0 0 0 0 0 0 0 0 0 0 0 0 0 0 0 0 0 0 0 0 0
0 0 0 0 0 0 0 0 0 0 0 0 0 0 0 0 0 0 0 0 0 0 0 0 0 0 0 0 0 0 0 0 0 0 0 0 0 0
0 0 0 0 0 0 0 0 0 0 0 0 0 0 0 0 0 0 0 0 0 0 0 0 0 0 0 0 0 0 0 0 0 0 0 0 0 0
0 0 0 0 0 0 0 0 0 0 0 0 0 0 0 0 0 0 0 0 0 0 0 0 0 0 0 0 0 0 0 0 0 0 0 0 0 0
0 0 0 0 0 0 0 0 0 0 0 0 0 0 0 0 0 0 0 0 0 0 0 0 0 0 0 0 0 0 0 0 0 0 0 0 0 0
0 0 0 0 0 0 0 0 0 0 0 0 0 0 0 0 0 0 0 0 0 0 0 0 0 0 0 0 0 0 0 0 0 0 0 0 0 0
0 0 0 0 0 0 0 0 0 0 0 0 0 0 0 0 0 0 0 0 0 0 0 0 0 0 0 0 0 0 0 0 0 0 0 0 0 0
0 0 0 0 0 0 0 0 0 0 0 0 0 0 0 0 0 0 0 0 0 0 0 0 0 0 0 0 0 0 0 0 0 0 0 0 0 0
0 0 0 0 0 0 0 0 0 0 0 0 0 0 0 0 0 0 0 0 0 0 0 0 0 0 0 0 0 0 0 0 0 0 0 0 0 0
0 0 0 0 0 0 0 0 0 0 0 0 0 0 0 0 0 0 0 0 0 0 0 0 0 0 0 0 0 0 0 0 0 0 0 0 0 0
0 0 0 0 0 0 0 0 0 0 0 0 0 0 0 0 0 0 0 0 0 0 0 0 0 0 0 0 0 0 0 0 0 0 0 0 0 0
0 0 0 0 0 0 0 0 0 0 0 0 0 0 0 0 0 0 0 0 0 0 0 0 0 0 0 0 0 0 0 0 0 0 0 0 0 0
0 0 0 0 0 0 0 0 0 0 0 0 0 0 0 0 0 0 0 0 0 0 0 0 0 0 0 0 0 0 0 0 0 0 0 0 0 0
0 0 0 0 0 0 0 0 0 0 0 0 0 0 0 0 0 0 0 0 0 0 0 0 0 0 0 0 0 0 0 0 0 0 0 0 0 0
0 0 0 0 0 0 0 0 0 0 0 0 0 0 0 0 0 0 0 0 0 0 0 0 0 0 0 0 0 0 0 0 0 0 0 0 0 0
0 0 0 0 0 0 0 0 0 0 0 0 0 0 0 0 0 0 0 0 0 0 0 0 0 0 0 0 0 -0 -0 -0 -0 -0 0 0 0 0
0 0 0 0 0 0 0 0 0 0 0 0 0 0 0 0 0 0 0 0 0 0 0 0 0 0 0 0 0 -0 -0 -0 -0 -0 -0 0 0 0
0 0 0 0 0 0 0 0 0 0 0 0 0 0 0 0 0 0 0 0 0 0 0 0 0 0 0 0 0 0 0 -0 -0 -0 -0 -0 0 0
Wind_Speed
2 3 3 2 1 1 1 0 1 2 2 1 2 3 2 2 1 3 4 5 9 9 9 8 7 7 6 7 9 11 12 13 15 15 16 19 21 23
3 2 1 1 1 1 0 0 1 1 2 2 2 2 3 5 4 4 5 5 9 10 10 9 8 7 7 8 9 10 12 13 14 14 15 17 19 21
3 4 4 3 2 2 2 2 1 2 2 3 2 2 2 3 4 5 5 3 4 9 10 9 8 7 7 8 9 10 11 12 13 14 15 16 19 21
5 5 4 4 4 4 3 3 2 1 1 2 2 2 2 3 4 5 5 4 3 5 10 9 8 8 7 7 8 9 10 11 11 12 13 16 19 22
6 6 6 6 5 4 4 4 3 4 2 2 2 1 2 4 5 6 6 4 5 1 5 7 8 8 8 7 7 8 8 9 9 10 11 14 18 21
7 8 8 7 6 5 4 5 5 4 4 3 3 3 4 6 5 6 6 5 5 5 3 3 5 8 8 7 6 7 7 8 8 8 9 12 15 18
7 7 8 8 8 6 5 5 5 5 4 5 4 4 5 5 6 5 6 5 5 3 4 3 1 2 3 5 5 5 6 6 7 7 7 9 13 16
6 5 6 6 6 5 5 4 4 5 4 4 4 5 5 5 5 6 5 6 5 4 4 4 3 3 2 1 1 3 4 4 4 4 5 8 12 15
5 4 5 8 8 5 3 1 1 1 1 2 4 4 4 4 5 6 6 7 5 5 4 4 3 3 3 1 1 1 2 2 2 1 3 7 11 13
7 7 8 8 8 7 4 3 3 3 3 2 2 3 4 4 4 6 7 7 4 3 4 3 3 3 3 1 0 1 1 1 1 2 4 8 11 14
8 8 7 7 10 11 6 6 6 5 4 4 6 7 9 9 6 4 6 6 6 4 4 3 4 4 3 1 0 1 0 1 2 4 6 9 12 13
6 7 10 8 8 10 6 5 5 5 7 8 4 4 3 3 3 2 4 5 6 5 5 5 4 5 4 2 1 1 0 1 2 4 7 9 11 8
5 6 4 5 6 7 5 3 4 5 6 5 3 4 4 4 5 4 4 4 4 5 5 5 4 4 3 3 2 0 0 1 1 2 5 9 9 6
5 6 5 3 2 4 4 5 9 8 3 3 4 4 4 4 4 4 5 4 4 4 4 4 3 4 4 4 3 2 1 1 1 2 3 6 6 5
5 7 6 4 2 3 5 6 6 3 4 4 4 4 3 4 4 4 5 5 5 6 6 5 5 4 3 3 3 3 2 1 1 1 2 4 4 4
5 5 5 4 4 5 4 3 1 2 3 3 3 3 4 4 3 3 4 4 4 4 6 7 6 6 4 4 3 4 3 3 2 1 1 1 3 4
4 3 3 4 4 4 2 2 2 3 3 3 3 3 4 4 4 3 3 4 4 5 5 5 5 3 4 5 4 5 4 3 3 2 1 1 1 1
3 3 4 3 2 2 2 2 3 3 2 2 3 3 3 3 4 4 4 4 4 4 4 5 6 5 3 4 6 6 5 4 3 3 2 1 1 1
2 3 2 2 2 2 2 3 3 3 2 2 2 2 3 3 3 3 3 4 4 4 3 3 5 5 6 5 4 7 5 4 4 4 3 2 2 2
4 4 2 3 2 2 2 3 2 2 2 1 2 2 3 3 3 3 3 4 4 4 4 3 4 4 3 3 3 3 7 5 4 3 3 2 2 3
7 5 3 3 3 3 3 2 1 1 2 1 1 2 2 3 3 3 3 4 4 4 4 3 2 3 2 1 2 2 3 5 5 3 3 2 2 2
6 6 5 5 4 4 4 3 2 2 2 1 1 1 1 2 3 3 3 4 4 4 5 4 3 3 2 3 3 3 3 2 4 7 7 5 2 1
7 5 5 6 5 5 4 5 4 3 2 2 1 1 1 2 2 3 4 4 4 5 6 5 5 4 3 3 3 3 4 3 2 2 3 5 4 3
Wind_Direction
172 177 212 213 203 150 120 180 295 308 319 6 29 50 38 15 152 265 280 238 219 222 226 230 236 246 257 268 273 273 270 268 264 256 245 230 219 211
141 145 139 76 67 65 57 42 13 326 326 351 9 22 25 347 350 322 303 273 223 222 224 228 236 246 259 272 278 278 274 270 264 255 243 227 213 206
121 119 99 69 48 15 32 41 35 23 340 332 356 356 19 342 328 310 296 266 230 220 221 225 233 245 260 273 281 284 282 276 268 258 243 224 209 202
102 98 88 84 65 41 21 32 28 12 331 330 319 340 13 4 341 318 327 334 311 220 211 218 230 242 255 270 280 285 287 282 273 261 240 220 206 198
91 87 77 69 56 40 37 31 13 7 338 313 314 9 31 14 352 342 343 336 331 19 202 223 233 242 250 262 278 288 293 289 279 262 238 216 202 194
75 74 68 63 48 16 40 29 18 355 343 353 10 27 27 7 3 347 340 343 342 356 334 279 227 233 247 257 273 291 299 299 288 264 235 212 197 188
79 79 79 79 65 44 47 28 19 14 12 12 20 26 20 9 1 337 340 334 332 351 331 323 288 252 247 246 260 295 305 305 297 272 230 202 187 179
95 97 105 74 67 62 60 53 43 39 26 13 22 16 10 4 344 336 336 336 329 339 329 318 337 322 309 315 304 300 306 309 303 269 215 188 177 170
88 77 80 65 43 24 18 104 113 84 22 19 21 357 353 355 340 332 330 326 314 318 326 316 332 329 327 9 40 329 332 336 326 246 175 164 161 158
76 69 73 59 30 8 2 29 47 47 11 28 5 332 337 336 330 322 320 328 327 350 355 325 330 323 318 345 197 314 337 24 67 111 146 149 146 147
74 61 71 66 29 21 22 29 29 12 355 326 297 292 299 304 306 326 339 346 341 340 3 336 322 319 303 301 79 202 280 96 102 115 128 136 135 134
104 90 72 66 42 30 24 25 21 353 335 327 318 315 320 348 4 4 354 348 338 333 352 342 327 331 317 324 14 106 143 155 137 136 136 137 139 138
138 115 93 71 47 25 12 19 354 315 303 311 350 16 12 15 14 6 2 347 338 325 331 337 324 327 311 312 326 22 114 128 141 153 160 159 160 156
102 109 119 118 46 354 347 339 333 326 317 3 24 16 11 12 352 347 347 340 328 317 331 342 322 327 325 326 330 340 13 84 121 160 165 167 180 195
94 119 142 169 237 276 272 295 319 349 8 17 19 10 360 354 347 353 349 345 350 3 14 360 353 344 348 345 338 338 344 7 52 118 155 170 178 181
131 148 172 205 252 283 280 258 220 64 16 14 12 1 354 353 0 359 353 348 357 355 1 6 9 11 5 357 10 4 1 357 353 7 134 159 173 181
152 175 196 206 216 221 197 134 90 75 36 18 18 7 0 357 357 358 354 356 2 359 358 356 358 16 47 27 15 7 3 3 359 356 27 77 123 173
157 216 207 198 178 145 110 101 96 80 40 21 27 13 359 353 356 358 6 6 1 0 2 360 357 355 1 53 33 10 5 6 1 2 9 52 67 71
203 245 209 150 136 127 102 83 82 94 64 23 30 15 357 350 359 360 12 6 352 348 359 11 12 6 3 2 16 22 6 360 5 10 13 22 46 68
230 241 197 156 154 135 104 86 75 91 81 27 27 20 359 348 358 358 12 11 341 340 355 17 17 4 357 344 346 2 12 9 5 7 8 32 62 78
219 222 196 165 167 150 125 118 118 99 90 347 31 35 1 351 359 359 2 1 347 353 358 4 348 327 310 340 22 8 13 28 33 19 1 18 40 47
227 209 188 175 166 154 147 159 187 172 163 204 73 42 13 358 352 4 9 2 4 0 350 349 347 347 2 19 23 12 13 19 48 63 59 44 23 27
237 217 195 174 166 164 171 181 198 199 177 154 113 64 24 359 350 10 11 11 12 4 356 353 351 352 360 12 23 26 18 20 26 33 35 20 22 10